Home   Weather   Galveston   Past weeks

Flag for USA Past Weather in Galveston, Texas, USA — Yesterday and Last 2 Weeks

Now
79 °F

Fog.


Feels Like: 83 °F
Forecast: 78 / 82 °F
Wind: 21 mph from Southeast

Location: Scholes Field

Current Time: Apr 29, 2017 at 2:43:37 am

Latest Report: Apr 29, 2017 at 1:52 am


Visibility: 6 mi

Pressure: 29.72 "Hg

Humidity: 94%

Dew Point: 77 °F

Location of GalvestonLocation

Past Weather in Galveston — Graph

°F

Galveston Temperature Yesterday

Maximum temperature yesterday: 84 °F (at 3:06 pm)
Minimum temperature yesterday: 77 °F (at 12:00 am)
Average temperature yesterday: 80 °F

High & Low Weather Summary for the Past Weeks

 TemperatureHumidityPressure
High85 °F (Apr 22, 2:52 pm)94% (Apr 28, 2:52 am)30.14 "Hg (Apr 28, 2:52 am)
Low58 °F (Apr 23, 6:52 am)42% (Apr 24, 10:52 am)29.54 "Hg (Apr 26, 6:52 am)
Average76 °F78%29.93 "Hg
* Reported Apr 14 1:52 am — Apr 29 1:20 am, Galveston, Weather by CustomWeather, © 2017

Note: Actual official high and low records may vary slightly from our data, if they occured in-between our weather recording intervals... More about our weather records

Advertising

Galveston Weather History for the Previous 24 Hours

Scroll right to see more
 ConditionsComfort  
Time TempWeatherWind HumidityBarometerVisibility
1:20 am
Sat, Apr 29
79 °FFog.21 mph94%29.73 "Hg5 mi
12:52 am79 °FFog.17 mph94%29.73 "Hg5 mi
11:52 pm
Fri, Apr 28
79 °FFog.16 mph94%29.73 "Hg5 mi
11:04 pm80 °FFog.13 mph90%29.74 "Hg5 mi
10:52 pm80 °FFog.13 mph90%29.75 "Hg5 mi
10:22 pm80 °FFog.14 mph90%29.74 "Hg5 mi
9:52 pm80 °FFog.15 mph90%29.73 "Hg5 mi
9:32 pm80 °FFog.16 mph90%29.72 "Hg5 mi
8:52 pm80 °FFog.15 mph90%29.71 "Hg5 mi
7:52 pm80 °FFog.15 mph90%29.69 "Hg4 mi
6:52 pm81 °FFog.17 mph88%29.67 "Hg5 mi
6:19 pm82 °FMore clouds than sun.17 mph85%29.68 "Hg5 mi
6:06 pm82 °FMostly cloudy.16 mph85%29.68 "Hg5 mi
5:52 pm82 °FOvercast.16 mph85%29.68 "Hg3 mi
5:07 pm83 °FMore clouds than sun.18 mph82%29.68 "Hg3 mi
4:13 pm83 °FOvercast.14 mph82%29.69 "Hg3 mi
3:52 pm84 °FMostly cloudy.15 mph80%29.69 "Hg3 mi
3:06 pm84 °FOvercast.15 mph80%29.70 "Hg7 mi
1:52 pm83 °FMostly cloudy.10 mph82%29.72 "Hg3 mi
12:52 pm83 °FMostly cloudy.15 mph82%29.72 "Hg3 mi
11:52 am83 °FOvercast.16 mph79%29.72 "Hg3 mi
10:59 am83 °FOvercast.17 mph79%29.73 "Hg3 mi
9:52 am82 °FBroken clouds.16 mph82%29.71 "Hg3 mi
8:52 am80 °FFog.16 mph87%29.71 "Hg3 mi
7:52 am78 °FFog.14 mph93%29.69 "Hg2 mi
6:52 am77 °FFog.14 mph94%29.67 "Hg2 mi
6:42 am77 °FFog.13 mph94%29.67 "Hg2 mi
5:52 am78 °FFog.13 mph93%29.66 "Hg4 mi
4:52 am78 °FOvercast.13 mph90%29.64 "Hg7 mi
3:52 am78 °FOvercast.15 mph90%29.64 "Hg7 mi
2:52 am77 °FOvercast.12 mph94%29.64 "Hg7 mi
2:09 am77 °FMostly cloudy.8 mph90%29.66 "Hg9 mi
Weather by CustomWeather, © 2017

See weather overviewHow to use our weather pages